SCP
0 0 0 0 0 0 0 0 0 0 0 0 0 0 0 0 0 0 0 0 0 0 0 0 0 0 0 0 0 0 0 0 0 0 0 0 0 0
0 0 0 0 0 0 0 0 0 0 0 0 0 0 0 0 0 0 0 0 0 0 0 0 0 0 0 0 0 0 0 0 0 0 0 0 0 0
0 0 0 0 0 0 0 0 0 0 0 0 0 0 0 0 0 0 0 0 0 0 0 0 0 0 0 0 0 0 0 0 0 0 0 0 0 0
0 0 0 0 0 0 0 0 0 0 0 0 0 0 0 0 0 0 0 0 0 0 0 0 0 0 0 0 0 0 0 0 0 0 0 0 0 0
0 0 0 0 0 0 0 0 0 0 0 0 0 0 0 0 0 0 0 0 0 0 0 0 0 0 0 0 0 0 0 0 0 0 0 0 0 0
0 0 0 0 0 0 0 0 0 0 0 0 0 0 0 0 0 0 0 0 0 0 0 0 0 0 0 0 0 0 0 0 0 0 0 0 0 0
0 0 0 0 0 0 0 0 0 0 0 0 0 0 0 0 0 0 0 0 0 0 0 0 0 0 0 0 0 0 0 0 0 0 0 0 0 0
0 0 0 0 0 0 0 0 0 0 0 0 0 0 0 0 0 0 0 0 0 0 0 0 0 0 0 0 0 0 0 0 0 0 0 0 0 0
0 0 0 0 0 0 0 0 0 0 0 0 0 0 0 0 0 0 0 0 0 0 0 0 0 0 0 0 0 0 0 0 0 0 0 0 0 0
0 0 0 0 0 0 0 0 0 0 0 0 0 0 0 0 0 0 0 0 0 0 0 0 0 0 0 -0 0 0 -0 0 0 0 0 0 0 0
0 0 0 0 0 0 0 0 0 0 0 0 0 0 0 0 0 0 0 -0 0 0 0 0 0 0 0 0 0 0 -0 0 0 0 0 0 0 0
0 0 0 0 0 0 0 0 0 0 0 0 0 0 0 0 0 0 0 -0 0 0 0 0 0 0 0 0 0 -0 -0 0 0 0 0 0 -0 0
0 0 0 0 0 0 0 0 0 0 0 0 0 0 -0 0 0 0 0 -0 0 0 0 0 0 0 0 0 0 -0 0 0 0 0 0 0 0 0
0 0 0 0 0 0 0 0 0 0 0 0 0 0 0 0 0 -0 0 0 0 -0 0 0 0 0 0 0 0 0 0 0 0 0 0 0 0 -0
0 0 0 0 0 0 0 0 0 0 0 0 0 0 0 0 0 -0 -0 0 0 0 0 0 0 0 0 0 0 0 0 0 0 0 0 0 0 0
0 0 0 0 0 0 0 0 0 0 0 0 0 0 0 0 0 0 0 0 0 0 0 0 0 0 0 0 0 0 0 0 0 0 0 0 0 0
0 0 0 0 0 0 0 0 0 0 0 0 0 0 0 0 0 0 0 0 0 0 0 0 0 0 0 0 0 0 0 0 0 0 0 0 0 0
0 0 0 0 0 0 0 0 0 0 0 -0 0 0 0 0 0 0 0 0 0 0 0 0 0 0 0 0 0 0 0 0 0 0 0 0 0 0
0 0 0 0 0 0 0 0 0 0 0 0 0 0 0 0 0 0 0 0 0 0 0 0 0 0 0 0 0 0 0 0 0 0 0 0 0 0
0 0 0 0 0 0 0 0 0 -0 0 0 0 0 0 0 0 0 0 0 0 0 0 0 0 0 0 0 0 0 0 0 -0 -0 -0 0 0 0
0 0 0 0 0 0 0 0 0 0 0 0 0 0 0 0 0 0 0 0 0 0 0 0 0 0 0 0 0 0 0 0 0 0 -0 -0 0 0
0 0 0 0 0 0 0 0 0 0 0 0 0 0 0 0 0 0 0 0 0 0 0 0 0 0 0 0 0 0 0 0 0 -0 -0 -0 0 -0
0 0 0 0 0 0 0 0 0 0 0 0 0 0 0 0 0 0 0 0 0 0 0 0 0 0 0 0 0 0 0 0 0 -0 -0 -0 -0 -0
Wind_Speed_500mb
33 34 37 39 41 49 51 53 56 58 68 63 51 61 62 46 48 50 49 53 49 48 47 47 47 45 48 44 41 42 47 49 49 51 54 52 52 52
34 39 40 42 48 56 56 52 58 62 64 67 73 58 48 47 47 42 46 49 51 42 39 36 37 38 37 35 37 43 46 48 49 49 51 51 50 48
35 38 40 48 54 53 54 58 61 54 56 73 60 46 43 48 47 37 41 45 45 38 36 34 38 39 38 40 41 38 39 38 39 41 44 47 45 42
38 36 47 47 53 54 54 53 56 60 53 62 52 49 46 47 37 34 38 39 43 41 36 37 39 39 37 32 34 35 32 31 31 34 37 42 44 42
41 51 60 53 51 51 53 57 58 55 49 55 56 48 48 41 30 32 41 42 41 41 37 33 32 28 31 30 27 27 28 28 28 32 36 34 37 43
55 61 63 46 46 50 56 56 55 58 53 52 48 45 43 39 33 40 43 46 49 46 35 37 32 33 30 34 24 18 19 18 21 23 26 33 38 42
58 60 45 41 45 47 56 66 60 62 55 45 44 44 43 42 41 41 48 51 53 43 30 23 24 17 20 12 15 17 12 19 19 24 34 40 42 44
57 52 40 44 52 50 58 64 54 56 39 41 41 43 41 40 45 41 49 49 46 27 33 19 22 26 20 12 7 10 8 12 23 36 41 39 40 44
42 43 47 45 47 55 66 75 50 45 46 47 39 39 42 38 45 48 44 38 27 21 29 29 25 28 19 9 14 15 23 25 25 33 37 32 33 38
36 35 34 53 69 78 68 58 55 49 42 37 37 40 36 38 42 38 32 23 21 18 20 24 27 26 9 14 22 23 26 25 23 29 15 14 14 8
48 55 73 80 60 52 52 54 55 58 55 44 44 34 36 36 38 29 18 17 25 17 3 27 31 33 6 21 16 24 28 17 18 22 9 3 5 4
76 83 76 56 54 62 62 64 69 66 56 37 30 25 35 38 26 13 12 15 17 17 10 28 30 37 19 21 20 33 25 12 15 18 10 14 13 13
80 71 55 51 46 38 33 32 31 33 30 25 26 27 35 23 12 9 9 9 14 18 12 21 28 37 34 35 21 29 27 11 9 12 16 21 19 11
55 53 44 33 33 33 30 30 31 29 20 19 15 13 8 8 12 18 13 9 11 18 16 25 34 31 29 25 17 12 20 13 10 16 23 25 24 22
51 39 32 32 36 31 31 29 25 19 14 8 4 4 5 13 16 12 13 6 11 12 17 16 17 16 6 4 10 24 34 34 32 35 38 38 36 34
47 36 32 30 29 29 29 18 18 16 10 2 5 3 12 10 3 15 7 7 3 11 17 14 12 12 17 25 27 33 41 45 55 61 61 64 59 55
36 34 34 34 32 30 26 24 16 14 5 2 4 3 10 3 9 17 7 11 11 13 22 28 34 41 43 43 45 44 50 59 64 68 71 74 68 63
35 35 35 33 32 29 28 25 19 13 4 2 2 3 7 3 23 14 14 10 14 13 38 38 42 40 44 46 48 48 53 56 58 62 69 74 72 63
36 34 32 30 28 26 25 26 22 17 15 2 1 4 3 19 19 20 15 15 10 19 19 31 18 28 44 49 46 48 51 51 57 64 65 69 69 61
36 34 32 28 26 23 22 21 20 13 16 11 7 11 18 25 18 18 14 13 17 26 26 23 31 36 43 46 39 32 28 35 43 49 50 52 53 45
40 36 31 27 24 21 18 17 18 17 14 13 15 30 29 21 22 14 18 20 26 24 34 37 35 38 42 42 47 43 35 29 30 33 36 35 45 38
42 39 32 28 25 21 18 17 18 18 18 20 32 29 22 27 22 17 24 31 29 41 41 36 32 37 34 44 46 43 41 38 33 30 26 21 24 32
39 40 37 32 28 23 22 22 22 24 28 36 28 22 30 26 22 29 35 34 48 46 39 34 31 32 37 45 49 52 50 49 48 56 56 42 39 32
Wind_Direction_500mb
290 300 302 305 308 308 312 307 317 315 315 320 312 302 307 310 309 313 315 318 317 308 301 295 296 290 291 287 282 275 266 266 260 254 253 255 257 256
298 299 299 303 305 309 313 305 310 312 309 312 316 311 310 308 315 311 316 320 318 310 305 297 295 295 289 286 278 275 271 264 261 254 250 252 256 249
302 297 297 303 308 307 304 306 309 312 307 313 315 314 310 312 316 313 318 325 326 318 309 309 305 301 292 287 285 273 272 267 258 249 248 251 252 240
302 299 303 309 306 307 304 307 312 314 307 315 313 311 311 319 316 316 315 322 328 318 311 313 305 293 293 293 280 276 270 262 255 251 250 250 250 241
297 300 305 312 305 304 306 309 309 306 304 316 309 306 310 319 317 318 312 317 327 328 312 306 308 303 296 295 280 281 270 262 261 256 253 253 253 254
307 313 310 301 299 304 307 305 308 303 301 311 305 307 314 324 322 310 313 316 322 330 319 305 306 306 291 293 283 280 274 254 253 252 256 261 263 264
314 320 306 296 297 306 315 313 306 301 287 307 302 304 309 320 330 321 313 313 317 336 334 331 320 334 331 332 267 268 274 248 262 268 272 271 269 267
313 315 318 310 307 304 304 317 307 295 291 300 297 296 298 307 320 318 316 320 324 350 327 3 349 354 339 315 271 293 297 289 280 273 276 271 269 270
316 314 320 310 307 308 310 314 303 295 291 292 286 295 297 300 312 317 315 315 318 334 329 346 3 349 348 39 27 346 327 320 304 293 283 278 273 268
292 293 300 308 307 307 302 304 298 303 289 285 276 286 287 295 305 312 312 320 326 323 318 329 0 356 358 27 4 342 329 317 314 311 315 296 292 282
299 303 310 316 306 296 297 297 297 301 302 286 274 273 266 279 299 304 304 323 333 335 297 357 355 358 345 11 338 341 341 325 318 335 330 166 133 127
318 323 324 310 297 292 295 294 298 299 300 300 267 252 265 281 295 287 284 310 323 336 4 342 346 358 343 357 357 343 349 336 340 1 118 118 77 88
322 323 321 316 322 325 320 317 315 313 305 297 284 268 268 273 274 261 258 285 297 287 316 318 319 330 334 336 0 347 350 360 11 35 142 118 93 109
330 331 333 344 339 330 321 317 315 319 313 306 291 273 264 280 294 220 215 258 281 292 315 310 306 311 315 326 353 11 25 44 80 99 114 114 106 93
335 342 341 340 338 339 326 315 317 329 317 325 278 281 244 273 292 232 200 242 255 310 323 332 326 330 343 334 60 82 73 76 95 105 108 107 103 98
341 345 340 330 335 340 347 356 340 334 330 280 322 253 294 306 304 151 132 227 70 24 16 18 82 110 96 108 105 98 94 89 92 95 97 96 94 89
346 358 359 0 358 1 5 6 1 5 17 29 180 293 322 310 154 144 113 154 42 69 100 100 100 96 93 93 89 89 93 95 94 94 94 93 88 87
6 5 4 3 2 4 5 7 358 1 17 91 228 283 310 142 139 141 147 59 90 94 114 106 112 100 90 85 84 89 90 90 90 90 92 90 84 80
6 6 3 2 4 5 7 3 4 14 29 178 183 195 231 136 128 140 95 114 95 132 101 124 116 120 105 97 98 87 85 84 87 84 81 80 84 79
9 6 3 3 6 7 6 7 21 35 57 53 54 132 123 124 115 143 119 121 128 140 123 118 105 113 114 109 113 102 94 91 80 81 82 81 79 78
13 11 10 7 8 12 19 35 44 56 69 63 94 113 114 107 107 127 138 128 129 140 131 118 118 106 113 109 91 91 89 94 101 91 85 79 83 65
18 15 17 21 20 25 41 59 68 71 75 93 111 106 109 111 110 119 122 127 123 125 120 119 119 115 110 95 89 89 88 88 91 89 81 89 76 83
23 26 29 31 33 45 68 76 79 88 96 101 104 99 107 94 95 117 125 125 128 123 122 117 112 110 103 99 96 96 94 90 86 78 75 65 64 60
Wind_Speed_850mb
33 34 37 39 41 49 51 53 56 58 68 63 51 61 62 46 48 50 49 53 49 48 47 47 47 45 48 44 41 42 47 49 49 51 54 52 52 52
34 39 40 42 48 56 56 52 58 62 64 67 73 58 48 47 47 42 46 49 51 42 39 36 37 38 37 35 37 43 46 48 49 49 51 51 50 48
35 38 40 48 54 53 54 58 61 54 56 73 60 46 43 48 47 37 41 45 45 38 36 34 38 39 38 40 41 38 39 38 39 41 44 47 45 42
38 36 47 47 53 54 54 53 56 60 53 62 52 49 46 47 37 34 38 39 43 41 36 37 39 39 37 32 34 35 32 31 31 34 37 42 44 42
41 51 60 53 51 51 53 57 58 55 49 55 56 48 48 41 30 32 41 42 41 41 37 33 32 28 31 30 27 27 28 28 28 32 36 34 37 43
55 61 63 46 46 50 56 56 55 58 53 52 48 45 43 39 33 40 43 46 49 46 35 37 32 33 30 34 24 18 19 18 21 23 26 33 38 42
58 60 45 41 45 47 56 66 60 62 55 45 44 44 43 42 41 41 48 51 53 43 30 23 24 17 20 12 15 17 12 19 19 24 34 40 42 44
57 52 40 44 52 50 58 64 54 56 39 41 41 43 41 40 45 41 49 49 46 27 33 19 22 26 20 12 7 10 8 12 23 36 41 39 40 44
42 43 47 45 47 55 66 75 50 45 46 47 39 39 42 38 45 48 44 38 27 21 29 29 25 28 19 9 14 15 23 25 25 33 37 32 33 38
36 35 34 53 69 78 68 58 55 49 42 37 37 40 36 38 42 38 32 23 21 18 20 24 27 26 9 14 22 23 26 25 23 29 15 14 14 8
48 55 73 80 60 52 52 54 55 58 55 44 44 34 36 36 38 29 18 17 25 17 3 27 31 33 6 21 16 24 28 17 18 22 9 3 5 4
76 83 76 56 54 62 62 64 69 66 56 37 30 25 35 38 26 13 12 15 17 17 10 28 30 37 19 21 20 33 25 12 15 18 10 14 13 13
80 71 55 51 46 38 33 32 31 33 30 25 26 27 35 23 12 9 9 9 14 18 12 21 28 37 34 35 21 29 27 11 9 12 16 21 19 11
55 53 44 33 33 33 30 30 31 29 20 19 15 13 8 8 12 18 13 9 11 18 16 25 34 31 29 25 17 12 20 13 10 16 23 25 24 22
51 39 32 32 36 31 31 29 25 19 14 8 4 4 5 13 16 12 13 6 11 12 17 16 17 16 6 4 10 24 34 34 32 35 38 38 36 34
47 36 32 30 29 29 29 18 18 16 10 2 5 3 12 10 3 15 7 7 3 11 17 14 12 12 17 25 27 33 41 45 55 61 61 64 59 55
36 34 34 34 32 30 26 24 16 14 5 2 4 3 10 3 9 17 7 11 11 13 22 28 34 41 43 43 45 44 50 59 64 68 71 74 68 63
35 35 35 33 32 29 28 25 19 13 4 2 2 3 7 3 23 14 14 10 14 13 38 38 42 40 44 46 48 48 53 56 58 62 69 74 72 63
36 34 32 30 28 26 25 26 22 17 15 2 1 4 3 19 19 20 15 15 10 19 19 31 18 28 44 49 46 48 51 51 57 64 65 69 69 61
36 34 32 28 26 23 22 21 20 13 16 11 7 11 18 25 18 18 14 13 17 26 26 23 31 36 43 46 39 32 28 35 43 49 50 52 53 45
40 36 31 27 24 21 18 17 18 17 14 13 15 30 29 21 22 14 18 20 26 24 34 37 35 38 42 42 47 43 35 29 30 33 36 35 45 38
42 39 32 28 25 21 18 17 18 18 18 20 32 29 22 27 22 17 24 31 29 41 41 36 32 37 34 44 46 43 41 38 33 30 26 21 24 32
39 40 37 32 28 23 22 22 22 24 28 36 28 22 30 26 22 29 35 34 48 46 39 34 31 32 37 45 49 52 50 49 48 56 56 42 39 32
Wind_Direction_850mb
290 300 302 305 308 308 312 307 317 315 315 320 312 302 307 310 309 313 315 318 317 308 301 295 296 290 291 287 282 275 266 266 260 254 253 255 257 256
298 299 299 303 305 309 313 305 310 312 309 312 316 311 310 308 315 311 316 320 318 310 305 297 295 295 289 286 278 275 271 264 261 254 250 252 256 249
302 297 297 303 308 307 304 306 309 312 307 313 315 314 310 312 316 313 318 325 326 318 309 309 305 301 292 287 285 273 272 267 258 249 248 251 252 240
302 299 303 309 306 307 304 307 312 314 307 315 313 311 311 319 316 316 315 322 328 318 311 313 305 293 293 293 280 276 270 262 255 251 250 250 250 241
297 300 305 312 305 304 306 309 309 306 304 316 309 306 310 319 317 318 312 317 327 328 312 306 308 303 296 295 280 281 270 262 261 256 253 253 253 254
307 313 310 301 299 304 307 305 308 303 301 311 305 307 314 324 322 310 313 316 322 330 319 305 306 306 291 293 283 280 274 254 253 252 256 261 263 264
314 320 306 296 297 306 315 313 306 301 287 307 302 304 309 320 330 321 313 313 317 336 334 331 320 334 331 332 267 268 274 248 262 268 272 271 269 267
313 315 318 310 307 304 304 317 307 295 291 300 297 296 298 307 320 318 316 320 324 350 327 3 349 354 339 315 271 293 297 289 280 273 276 271 269 270
316 314 320 310 307 308 310 314 303 295 291 292 286 295 297 300 312 317 315 315 318 334 329 346 3 349 348 39 27 346 327 320 304 293 283 278 273 268
292 293 300 308 307 307 302 304 298 303 289 285 276 286 287 295 305 312 312 320 326 323 318 329 0 356 358 27 4 342 329 317 314 311 315 296 292 282
299 303 310 316 306 296 297 297 297 301 302 286 274 273 266 279 299 304 304 323 333 335 297 357 355 358 345 11 338 341 341 325 318 335 330 166 133 127
318 323 324 310 297 292 295 294 298 299 300 300 267 252 265 281 295 287 284 310 323 336 4 342 346 358 343 357 357 343 349 336 340 1 118 118 77 88
322 323 321 316 322 325 320 317 315 313 305 297 284 268 268 273 274 261 258 285 297 287 316 318 319 330 334 336 0 347 350 360 11 35 142 118 93 109
330 331 333 344 339 330 321 317 315 319 313 306 291 273 264 280 294 220 215 258 281 292 315 310 306 311 315 326 353 11 25 44 80 99 114 114 106 93
335 342 341 340 338 339 326 315 317 329 317 325 278 281 244 273 292 232 200 242 255 310 323 332 326 330 343 334 60 82 73 76 95 105 108 107 103 98
341 345 340 330 335 340 347 356 340 334 330 280 322 253 294 306 304 151 132 227 70 24 16 18 82 110 96 108 105 98 94 89 92 95 97 96 94 89
346 358 359 0 358 1 5 6 1 5 17 29 180 293 322 310 154 144 113 154 42 69 100 100 100 96 93 93 89 89 93 95 94 94 94 93 88 87
6 5 4 3 2 4 5 7 358 1 17 91 228 283 310 142 139 141 147 59 90 94 114 106 112 100 90 85 84 89 90 90 90 90 92 90 84 80
6 6 3 2 4 5 7 3 4 14 29 178 183 195 231 136 128 140 95 114 95 132 101 124 116 120 105 97 98 87 85 84 87 84 81 80 84 79
9 6 3 3 6 7 6 7 21 35 57 53 54 132 123 124 115 143 119 121 128 140 123 118 105 113 114 109 113 102 94 91 80 81 82 81 79 78
13 11 10 7 8 12 19 35 44 56 69 63 94 113 114 107 107 127 138 128 129 140 131 118 118 106 113 109 91 91 89 94 101 91 85 79 83 65
18 15 17 21 20 25 41 59 68 71 75 93 111 106 109 111 110 119 122 127 123 125 120 119 119 115 110 95 89 89 88 88 91 89 81 89 76 83
23 26 29 31 33 45 68 76 79 88 96 101 104 99 107 94 95 117 125 125 128 123 122 117 112 110 103 99 96 96 94 90 86 78 75 65 64 60